| time (UTC) | temp F | wind direction | speed MPH | gust MPH | rain 1hr in | rain 24hr in | rain mn in | humidity % | barometer mb |
| 20260508205205 | 48 | 95 | 0.0 | 0.0 | 0.00 | 0.01 | 0.01 | 84 | 1019.9 |
| 20260508204705 | 48 | 95 | 0.0 | 0.0 | 0.00 | 0.01 | 0.01 | 83 | 1019.8 |
| 20260508204205 | 49 | 95 | 0.0 | 0.0 | 0.00 | 0.01 | 0.01 | 82 | 1019.8 |
| 20260508203705 | 49 | 95 | 0.0 | 0.0 | 0.00 | 0.01 | 0.01 | 82 | 1019.8 |
| 20260508203512 | 49 | 95 | 0.0 | 0.0 | 0.00 | 0.01 | 0.01 | 82 | 1018.8 |
| 20260508203205 | 49 | 95 | 0.0 | 0.0 | 0.00 | 0.01 | 0.01 | 82 | 1019.8 |
| 20260508202511 | 49 | 95 | 0.0 | 0.0 | 0.00 | 0.01 | 0.01 | 82 | 1018.7 |
| 20260508202205 | 49 | 95 | 0.0 | 0.0 | 0.00 | 0.01 | 0.01 | 81 | 1019.7 |
| 20260508201705 | 50 | 95 | 0.0 | 0.0 | 0.00 | 0.01 | 0.01 | 80 | 1019.7 |
| 20260508201511 | 50 | 95 | 0.0 | 0.0 | 0.00 | 0.01 | 0.01 | 78 | 1018.7 |
| 20260508201205 | 50 | 95 | 0.0 | 0.0 | 0.00 | 0.01 | 0.01 | 80 | 1019.7 |
| 20260508200705 | 50 | 95 | 0.0 | 0.0 | 0.00 | 0.01 | 0.01 | 79 | 1019.7 |
| 20260508200205 | 51 | 95 | 0.0 | 0.0 | 0.00 | 0.01 | 0.01 | 78 | 1019.7 |
| 20260508195705 | 51 | 95 | 0.0 | 0.0 | 0.00 | 0.01 | 0.01 | 78 | 1019.7 |
| 20260508195512 | 51 | 95 | 0.0 | 0.0 | 0.00 | 0.01 | 0.01 | 78 | 1018.7 |
| 20260508195205 | 52 | 95 | 0.0 | 0.0 | 0.00 | 0.01 | 0.01 | 78 | 1019.7 |
| 20260508194511 | 52 | 95 | 0.0 | 0.0 | 0.00 | 0.01 | 0.01 | 77 | 1018.7 |
| 20260508193705 | 53 | 95 | 0.0 | 0.0 | 0.00 | 0.01 | 0.01 | 76 | 1019.7 |
| 20260508193511 | 53 | 95 | 0.0 | 0.0 | 0.00 | 0.01 | 0.01 | 76 | 1018.7 |
| 20260508193205 | 53 | 95 | 0.0 | 0.0 | 0.00 | 0.01 | 0.01 | 76 | 1019.7 |
| 20260508192705 | 53 | 95 | 0.0 | 0.0 | 0.00 | 0.01 | 0.01 | 75 | 1019.7 |
| 20260508192205 | 53 | 95 | 0.0 | 0.0 | 0.00 | 0.01 | 0.01 | 74 | 1019.5 |
| 20260508191511 | 54 | 92 | 0.0 | 1.0 | 0.00 | 0.01 | 0.01 | 72 | 1018.4 |
| 20260508190705 | 55 | 106 | 0.0 | 0.0 | 0.00 | 0.01 | 0.01 | 71 | 1019.3 |
| 20260508190511 | 55 | 106 | 0.0 | 0.0 | 0.00 | 0.01 | 0.01 | 71 | 1018.3 |
| 20260508190205 | 55 | 106 | 0.0 | 0.0 | 0.00 | 0.01 | 0.01 | 70 | 1019.2 |
| 20260508185705 | 55 | 99 | 0.0 | 0.0 | 0.00 | 0.01 | 0.01 | 70 | 1019.2 |
| 20260508185511 | 56 | 88 | 0.0 | 0.0 | 0.00 | 0.01 | 0.01 | 70 | 1018.2 |
| 20260508184511 | 56 | 103 | 0.0 | 0.0 | 0.00 | 0.01 | 0.01 | 68 | 1017.9 |
| 20260508184205 | 56 | 95 | 0.0 | 3.0 | 0.00 | 0.01 | 0.01 | 68 | 1019.0 |
| 20260508183705 | 56 | 109 | 0.0 | 0.0 | 0.00 | 0.01 | 0.01 | 67 | 1019.0 |
| 20260508183511 | 56 | 113 | 0.0 | 2.0 | 0.00 | 0.01 | 0.01 | 67 | 1018.0 |
| 20260508183205 | 57 | 96 | 0.0 | 2.0 | 0.00 | 0.01 | 0.01 | 67 | 1019.0 |
| 20260508182511 | 56 | 83 | 0.0 | 0.0 | 0.00 | 0.01 | 0.01 | 68 | 1017.9 |
| 20260508182205 | 56 | 86 | 0.0 | 1.0 | 0.00 | 0.01 | 0.01 | 68 | 1018.9 |
| 20260508181204 | 56 | 107 | 0.0 | 0.0 | 0.00 | 0.01 | 0.01 | 69 | 1018.8 |
| 20260508180705 | 56 | 107 | 0.0 | 0.0 | 0.00 | 0.01 | 0.01 | 68 | 1018.8 |
| 20260508180510 | 56 | 107 | 0.0 | 0.0 | 0.00 | 0.01 | 0.01 | 68 | 1017.8 |
| 20260508175705 | 57 | 100 | 0.0 | 3.0 | 0.00 | 0.01 | 0.01 | 67 | 1018.7 |
| 20260508175514 | 57 | 88 | 0.0 | 0.0 | 0.00 | 0.01 | 0.01 | 67 | 1017.6 |
| 20260508175205 | 57 | 94 | 0.0 | 0.0 | 0.00 | 0.01 | 0.01 | 67 | 1018.7 |
| 20260508174705 | 57 | 99 | 0.0 | 0.0 | 0.00 | 0.01 | 0.01 | 66 | 1018.7 |
| 20260508174204 | 57 | 120 | 0.0 | 0.0 | 0.00 | 0.01 | 0.01 | 65 | 1018.6 |
| 20260508173511 | 58 | 96 | 0.0 | 1.0 | 0.00 | 0.01 | 0.01 | 64 | 1017.5 |
| 20260508173204 | 58 | 107 | 0.0 | 1.0 | 0.00 | 0.01 | 0.01 | 64 | 1018.6 |
| 20260508172705 | 58 | 100 | 0.0 | 1.0 | 0.00 | 0.01 | 0.01 | 65 | 1018.6 |
| 20260508172511 | 58 | 94 | 0.0 | 1.0 | 0.00 | 0.01 | 0.01 | 65 | 1017.5 |
| 20260508172205 | 58 | 99 | 0.0 | 1.0 | 0.00 | 0.01 | 0.01 | 66 | 1018.6 |
| 20260508171705 | 59 | 104 | 0.0 | 6.0 | 0.00 | 0.01 | 0.01 | 64 | 1018.6 |
| 20260508171511 | 59 | 82 | 0.0 | 6.0 | 0.00 | 0.01 | 0.01 | 64 | 1017.4 |
| 20260508171205 | 59 | 106 | 1.0 | 3.0 | 0.00 | 0.01 | 0.01 | 64 | 1018.6 |
| 20260508170705 | 59 | 111 | 0.0 | 0.0 | 0.00 | 0.01 | 0.01 | 64 | 1018.5 |
| 20260508170511 | 59 | 111 | 0.0 | 2.0 | 0.00 | 0.01 | 0.01 | 64 | 1017.4 |
| 20260508170205 | 59 | 97 | 1.0 | 3.0 | 0.00 | 0.01 | 0.01 | 62 | 1018.5 |
| 20260508165511 | 60 | 148 | 0.0 | 1.0 | 0.00 | 0.01 | 0.01 | 61 | 1017.3 |
| 20260508165205 | 60 | 151 | 0.0 | 0.0 | 0.00 | 0.01 | 0.01 | 62 | 1018.4 |
| 20260508164704 | 60 | 181 | 0.0 | 0.0 | 0.00 | 0.01 | 0.01 | 62 | 1018.4 |
| 20260508164511 | 60 | 205 | 0.0 | 0.0 | 0.00 | 0.01 | 0.01 | 62 | 1017.3 |
| 20260508164205 | 59 | 92 | 0.0 | 0.0 | 0.00 | 0.01 | 0.01 | 60 | 1018.4 |
| 20260508163704 | 59 | 139 | 0.0 | 0.0 | 0.00 | 0.01 | 0.01 | 60 | 1018.4 |
| 20260508163510 | 59 | 154 | 0.0 | 0.0 | 0.00 | 0.01 | 0.01 | 60 | 1017.3 |
| 20260508163205 | 59 | 187 | 0.0 | 0.0 | 0.00 | 0.01 | 0.01 | 60 | 1018.4 |
| 20260508162705 | 60 | 96 | 0.0 | 0.0 | 0.00 | 0.01 | 0.01 | 58 | 1018.3 |
| 20260508162511 | 61 | 101 | 0.0 | 1.0 | 0.00 | 0.01 | 0.01 | 58 | 1017.2 |
| 20260508162204 | 60 | 84 | 0.0 | 1.0 | 0.00 | 0.01 | 0.01 | 59 | 1018.2 |
| 20260508161704 | 60 | 138 | 0.0 | 0.0 | 0.00 | 0.01 | 0.01 | 58 | 1018.3 |
| 20260508161205 | 60 | 135 | 0.0 | 3.0 | 0.00 | 0.01 | 0.01 | 57 | 1018.3 |
| 20260508160205 | 62 | 89 | 0.0 | 1.0 | 0.00 | 0.01 | 0.01 | 49 | 1018.2 |
| 20260508155704 | 62 | 81 | 0.0 | 0.0 | 0.00 | 0.01 | 0.01 | 47 | 1018.3 |
| 20260508155511 | 62 | 92 | 0.0 | 0.0 | 0.00 | 0.01 | 0.01 | 46 | 1017.1 |
| 20260508155205 | 61 | 148 | 0.0 | 0.0 | 0.00 | 0.01 | 0.01 | 49 | 1018.2 |
| 20260508154705 | 61 | 73 | 0.0 | 0.0 | 0.00 | 0.01 | 0.01 | 48 | 1018.3 |
| 20260508154511 | 61 | 90 | 0.0 | 0.0 | 0.00 | 0.01 | 0.01 | 49 | 1017.2 |
| 20260508154204 | 62 | 98 | 0.0 | 0.0 | 0.00 | 0.01 | 0.01 | 49 | 1018.3 |
| 20260508153704 | 62 | 94 | 0.0 | 1.0 | 0.00 | 0.01 | 0.01 | 46 | 1018.3 |
| 20260508153510 | 62 | 92 | 0.0 | 7.0 | 0.00 | 0.01 | 0.01 | 47 | 1017.2 |
| 20260508153204 | 62 | 105 | 0.0 | 5.0 | 0.00 | 0.01 | 0.01 | 47 | 1018.4 |
| 20260508152511 | 61 | 97 | 0.0 | 0.0 | 0.00 | 0.01 | 0.01 | 48 | 1017.3 |
| 20260508151705 | 62 | 106 | 0.0 | 0.0 | 0.00 | 0.01 | 0.01 | 47 | 1018.4 |
| 20260508151511 | 62 | 151 | 0.0 | 1.0 | 0.00 | 0.01 | 0.01 | 48 | 1017.3 |
| 20260508151205 | 62 | 43 | 0.0 | 0.0 | 0.00 | 0.01 | 0.01 | 48 | 1018.4 |
| 20260508150704 | 61 | 48 | 0.0 | 1.0 | 0.00 | 0.01 | 0.01 | 50 | 1018.4 |
| 20260508150511 | 61 | 71 | 0.0 | 0.0 | 0.00 | 0.01 | 0.01 | 50 | 1017.3 |
| 20260508150205 | 61 | 95 | 0.0 | 2.0 | 0.00 | 0.01 | 0.01 | 47 | 1018.5 |
| 20260508145705 | 62 | 80 | 0.0 | 2.0 | 0.00 | 0.01 | 0.01 | 48 | 1018.5 |
| 20260508145511 | 62 | 81 | 0.0 | 0.0 | 0.00 | 0.01 | 0.01 | 47 | 1017.4 |
| 20260508145205 | 62 | 92 | 0.0 | 3.0 | 0.00 | 0.01 | 0.01 | 46 | 1018.4 |
| 20260508144705 | 62 | 98 | 0.0 | 2.0 | 0.00 | 0.01 | 0.01 | 50 | 1018.5 |
| 20260508144511 | 61 | 92 | 0.0 | 2.0 | 0.00 | 0.01 | 0.01 | 49 | 1017.4 |
| 20260508143704 | 61 | 78 | 0.0 | 1.0 | 0.00 | 0.01 | 0.01 | 49 | 1018.5 |
| 20260508143511 | 61 | 83 | 0.0 | 1.0 | 0.00 | 0.01 | 0.01 | 50 | 1017.4 |
| 20260508143204 | 61 | 79 | 0.0 | 3.0 | 0.00 | 0.01 | 0.01 | 50 | 1018.5 |
| 20260508142705 | 62 | 56 | 1.0 | 6.0 | 0.00 | 0.01 | 0.01 | 47 | 1018.5 |
| 20260508142510 | 62 | 140 | 0.0 | 6.0 | 0.00 | 0.01 | 0.01 | 48 | 1017.4 |
| 20260508142205 | 62 | 72 | 0.0 | 1.0 | 0.00 | 0.01 | 0.01 | 50 | 1018.5 |
| 20260508141705 | 62 | 109 | 0.0 | 2.0 | 0.00 | 0.01 | 0.01 | 47 | 1018.5 |
| 20260508141510 | 62 | 102 | 0.0 | 6.0 | 0.00 | 0.01 | 0.01 | 47 | 1017.5 |
| 20260508141204 | 61 | 121 | 1.0 | 7.0 | 0.00 | 0.01 | 0.01 | 49 | 1018.6 |
| 20260508140705 | 61 | 70 | 0.0 | 2.0 | 0.00 | 0.01 | 0.01 | 51 | 1018.6 |
| 20260508140205 | 61 | 76 | 0.0 | 8.0 | 0.00 | 0.01 | 0.01 | 48 | 1018.6 |
| 20260508135704 | 62 | 85 | 2.0 | 8.0 | 0.00 | 0.01 | 0.01 | 47 | 1018.5 |
| 20260508135205 | 62 | 77 | 0.0 | 7.0 | 0.00 | 0.01 | 0.01 | 49 | 1018.6 |
| 20260508134704 | 61 | 93 | 0.0 | 2.0 | 0.00 | 0.01 | 0.01 | 49 | 1018.6 |
| 20260508134206 | 61 | 51 | 3.0 | 12.0 | 0.00 | 0.01 | 0.01 | 50 | 1018.7 |
| 20260508133511 | 61 | 42 | 1.0 | 11.0 | 0.00 | 0.01 | 0.01 | 50 | 1017.6 |
| 20260508133204 | 61 | 93 | 0.0 | 3.0 | 0.00 | 0.01 | 0.01 | 50 | 1018.7 |
| 20260508132704 | 60 | 104 | 0.0 | 3.0 | 0.00 | 0.01 | 0.01 | 49 | 1018.7 |
| 20260508132511 | 60 | 106 | 0.0 | 4.0 | 0.00 | 0.01 | 0.01 | 48 | 1017.6 |
| 20260508132205 | 60 | 79 | 0.0 | 3.0 | 0.00 | 0.01 | 0.01 | 49 | 1018.8 |
| 20260508131704 | 62 | 78 | 0.0 | 2.0 | 0.00 | 0.01 | 0.01 | 47 | 1018.7 |
| 20260508131510 | 62 | 88 | 0.0 | 4.0 | 0.00 | 0.01 | 0.01 | 49 | 1017.6 |
| 20260508130705 | 61 | 34 | 0.0 | 3.0 | 0.00 | 0.01 | 0.01 | 50 | 1018.7 |
| 20260508130205 | 60 | 74 | 1.0 | 8.0 | 0.00 | 0.01 | 0.01 | 53 | 1018.8 |
| 20260508125705 | 61 | 41 | 1.0 | 3.0 | 0.00 | 0.01 | 0.01 | 50 | 1018.9 |
| 20260508125510 | 61 | 58 | 0.0 | 3.0 | 0.00 | 0.01 | 0.01 | 51 | 1017.9 |
| 20260508125204 | 61 | 101 | 0.0 | 2.0 | 0.00 | 0.01 | 0.01 | 50 | 1019.0 |
| 20260508124704 | 61 | 93 | 0.0 | 1.0 | 0.00 | 0.01 | 0.01 | 49 | 1019.1 |
| 20260508124510 | 61 | 110 | 0.0 | 1.0 | 0.00 | 0.01 | 0.01 | 49 | 1018.0 |
| 20260508123704 | 61 | 98 | 0.0 | 5.0 | 0.00 | 0.01 | 0.01 | 50 | 1019.1 |
| 20260508123510 | 61 | 92 | 0.0 | 5.0 | 0.00 | 0.01 | 0.01 | 50 | 1018.0 |
| 20260508123205 | 61 | 56 | 0.0 | 7.0 | 0.00 | 0.01 | 0.01 | 52 | 1019.1 |
| 20260508122704 | 61 | 70 | 2.0 | 14.0 | 0.00 | 0.01 | 0.01 | 52 | 1019.1 |
| 20260508122510 | 61 | 89 | 0.0 | 14.0 | 0.00 | 0.01 | 0.01 | 52 | 1018.0 |
| 20260508122205 | 61 | 69 | 1.0 | 7.0 | 0.00 | 0.01 | 0.01 | 51 | 1019.1 |
| 20260508121704 | 60 | 90 | 0.0 | 1.0 | 0.00 | 0.01 | 0.01 | 50 | 1019.1 |
| 20260508121205 | 60 | 71 | 0.0 | 3.0 | 0.00 | 0.01 | 0.01 | 50 | 1019.2 |
| 20260508120704 | 61 | 83 | 1.0 | 9.0 | 0.00 | 0.01 | 0.01 | 50 | 1019.1 |
| 20260508120510 | 61 | 40 | 1.0 | 9.0 | 0.00 | 0.01 | 0.01 | 51 | 1018.1 |
| 20260508120205 | 61 | 93 | 0.0 | 2.0 | 0.00 | 0.01 | 0.01 | 54 | 1019.2 |
| 20260508115705 | 60 | 85 | 0.0 | 2.0 | 0.00 | 0.01 | 0.01 | 53 | 1019.2 |
| 20260508115511 | 60 | 76 | 0.0 | 7.0 | 0.00 | 0.01 | 0.01 | 52 | 1018.1 |
| 20260508115205 | 60 | 71 | 2.0 | 6.0 | 0.00 | 0.01 | 0.01 | 52 | 1019.3 |
| 20260508114704 | 60 | 97 | 0.0 | 12.0 | 0.00 | 0.01 | 0.01 | 53 | 1019.3 |
| 20260508113705 | 59 | 54 | 0.0 | 3.0 | 0.00 | 0.01 | 0.01 | 54 | 1019.2 |
| 20260508113204 | 59 | 59 | 0.0 | 5.0 | 0.00 | 0.01 | 0.01 | 53 | 1019.3 |
| 20260508112704 | 59 | 56 | 1.0 | 8.0 | 0.00 | 0.01 | 0.01 | 53 | 1019.3 |
| 20260508112510 | 59 | 88 | 0.0 | 8.0 | 0.00 | 0.01 | 0.01 | 55 | 1018.2 |
| 20260508112204 | 59 | 73 | 0.0 | 1.0 | 0.00 | 0.01 | 0.01 | 51 | 1019.4 |
| 20260508111205 | 59 | 56 | 0.0 | 3.0 | 0.00 | 0.01 | 0.01 | 53 | 1019.4 |
| 20260508110705 | 59 | 99 | 1.0 | 10.0 | 0.00 | 0.01 | 0.01 | 54 | 1019.4 |
| 20260508110510 | 59 | 72 | 2.0 | 11.0 | 0.00 | 0.01 | 0.01 | 52 | 1018.3 |
| 20260508105705 | 59 | 93 | 1.0 | 9.0 | 0.00 | 0.01 | 0.01 | 57 | 1019.4 |
| 20260508105510 | 59 | 22 | 0.0 | 5.0 | 0.00 | 0.01 | 0.01 | 56 | 1018.2 |
| 20260508105204 | 59 | 79 | 1.0 | 6.0 | 0.00 | 0.01 | 0.01 | 55 | 1019.4 |
| 20260508104704 | 59 | 98 | 0.0 | 0.0 | 0.00 | 0.01 | 0.01 | 57 | 1019.4 |
| 20260508104510 | 59 | 71 | 0.0 | 0.0 | 0.00 | 0.01 | 0.01 | 56 | 1018.3 |
| 20260508104205 | 59 | 80 | 0.0 | 2.0 | 0.00 | 0.01 | 0.01 | 54 | 1019.5 |
| 20260508103704 | 59 | 84 | 0.0 | 8.0 | 0.00 | 0.01 | 0.01 | 57 | 1019.4 |
| 20260508103204 | 59 | 342 | 0.0 | 3.0 | 0.00 | 0.01 | 0.01 | 57 | 1019.4 |
| 20260508102705 | 58 | 86 | 0.0 | 2.0 | 0.00 | 0.01 | 0.01 | 56 | 1019.5 |
| 20260508102510 | 58 | 76 | 1.0 | 12.0 | 0.00 | 0.01 | 0.01 | 56 | 1018.3 |
| 20260508102207 | 59 | 58 | 1.0 | 12.0 | 0.00 | 0.01 | 0.01 | 56 | 1019.4 |
| 20260508101704 | 58 | 29 | 0.0 | 0.0 | 0.00 | 0.01 | 0.01 | 57 | 1019.4 |
| 20260508101204 | 58 | 38 | 0.0 | 1.0 | 0.00 | 0.01 | 0.01 | 55 | 1019.5 |
| 20260508100704 | 58 | 16 | 0.0 | 1.0 | 0.00 | 0.01 | 0.01 | 56 | 1019.5 |
| 20260508100204 | 58 | 49 | 0.0 | 3.0 | 0.00 | 0.01 | 0.01 | 54 | 1019.5 |
| 20260508095708 | 58 | 63 | 0.0 | 0.0 | 0.00 | 0.01 | 0.01 | 55 | 1019.6 |
| 20260508095513 | 58 | 59 | 0.0 | 1.0 | 0.00 | 0.01 | 0.01 | 55 | 1018.5 |
| 20260508095204 | 58 | 59 | 0.0 | 1.0 | 0.00 | 0.01 | 0.01 | 54 | 1019.7 |
| 20260508094704 | 57 | 83 | 3.0 | 12.0 | 0.00 | 0.01 | 0.01 | 54 | 1019.7 |
| 20260508093704 | 57 | 73 | 0.0 | 10.0 | 0.00 | 0.01 | 0.01 | 56 | 1019.7 |
| 20260508093204 | 57 | 60 | 1.0 | 7.0 | 0.00 | 0.01 | 0.01 | 55 | 1019.7 |
| 20260508092704 | 57 | 84 | 1.0 | 3.0 | 0.00 | 0.01 | 0.01 | 54 | 1019.7 |
| 20260508092207 | 57 | 95 | 1.0 | 6.0 | 0.00 | 0.01 | 0.01 | 56 | 1019.7 |
| 20260508091704 | 56 | 147 | 0.0 | 2.0 | 0.00 | 0.01 | 0.01 | 55 | 1019.7 |
| 20260508091513 | 56 | 57 | 0.0 | 1.0 | 0.00 | 0.01 | 0.01 | 57 | 1018.6 |
| 20260508091204 | 56 | 82 | 0.0 | 10.0 | 0.00 | 0.01 | 0.01 | 56 | 1019.7 |
| 20260508090705 | 56 | 64 | 0.0 | 0.0 | 0.00 | 0.01 | 0.01 | 57 | 1019.7 |
| 20260508090513 | 56 | 8 | 1.0 | 12.0 | 0.00 | 0.01 | 0.01 | 57 | 1018.6 |
| 20260508090204 | 56 | 72 | 2.0 | 12.0 | 0.00 | 0.01 | 0.01 | 56 | 1019.8 |
| 20260508085704 | 56 | 63 | 0.0 | 2.0 | 0.00 | 0.01 | 0.01 | 57 | 1019.7 |
| 20260508085513 | 56 | 86 | 0.0 | 2.0 | 0.00 | 0.01 | 0.01 | 57 | 1018.7 |
| 20260508085204 | 56 | 76 | 0.0 | 10.0 | 0.00 | 0.01 | 0.01 | 56 | 1019.8 |
| 20260508084704 | 56 | 69 | 0.0 | 0.0 | 0.00 | 0.01 | 0.01 | 55 | 1019.8 |
| 20260508084513 | 56 | 90 | 0.0 | 3.0 | 0.00 | 0.01 | 0.01 | 58 | 1018.6 |
| 20260508084204 | 56 | 45 | 1.0 | 9.0 | 0.00 | 0.01 | 0.01 | 57 | 1019.8 |
| 20260508083704 | 56 | 71 | 1.0 | 12.0 | 0.00 | 0.01 | 0.01 | 56 | 1019.8 |
| 20260508083204 | 56 | 68 | 0.0 | 6.0 | 0.00 | 0.01 | 0.01 | 58 | 1019.8 |
| 20260508082704 | 56 | 94 | 0.0 | 6.0 | 0.00 | 0.01 | 0.01 | 58 | 1019.8 |
| 20260508082513 | 56 | 82 | 1.0 | 6.0 | 0.00 | 0.01 | 0.01 | 58 | 1018.7 |
| 20260508082204 | 55 | 88 | 0.0 | 0.0 | 0.00 | 0.01 | 0.01 | 54 | 1019.8 |
| 20260508081704 | 55 | 103 | 1.0 | 3.0 | 0.00 | 0.01 | 0.01 | 59 | 1019.8 |
| 20260508081513 | 55 | 95 | 0.0 | 7.0 | 0.00 | 0.01 | 0.01 | 56 | 1018.6 |
| 20260508081204 | 55 | 103 | 2.0 | 9.0 | 0.00 | 0.01 | 0.01 | 58 | 1019.8 |
| 20260508080513 | 54 | 63 | 1.0 | 8.0 | 0.00 | 0.01 | 0.01 | 58 | 1018.7 |
| 20260508080204 | 54 | 64 | 3.0 | 10.0 | 0.00 | 0.01 | 0.01 | 60 | 1019.9 |
| 20260508075704 | 54 | 75 | 1.0 | 6.0 | 0.00 | 0.01 | 0.01 | 62 | 1019.9 |
| 20260508075513 | 54 | 73 | 1.0 | 2.0 | 0.00 | 0.01 | 0.01 | 63 | 1018.7 |
| 20260508075204 | 54 | 105 | 0.0 | 3.0 | 0.00 | 0.01 | 0.01 | 62 | 1019.8 |
| 20260508074704 | 54 | 82 | 1.0 | 3.0 | 0.00 | 0.01 | 0.01 | 63 | 1019.8 |
| 20260508074513 | 54 | 75 | 1.0 | 5.0 | 0.00 | 0.01 | 0.01 | 62 | 1018.7 |
| 20260508073513 | 53 | 113 | 0.0 | 4.0 | 0.00 | 0.01 | 0.01 | 64 | 1018.7 |
| 20260508072704 | 53 | 57 | 1.0 | 6.0 | 0.00 | 0.01 | 0.01 | 63 | 1019.7 |
| 20260508072513 | 52 | 79 | 0.0 | 4.0 | 0.00 | 0.01 | 0.01 | 63 | 1018.6 |
| 20260508072204 | 52 | 94 | 0.0 | 2.0 | 0.00 | 0.01 | 0.01 | 64 | 1019.7 |
| 20260508071513 | 52 | 84 | 0.0 | 2.0 | 0.00 | 0.01 | 0.01 | 66 | 1018.6 |
| 20260508071204 | 52 | 77 | 0.0 | 1.0 | 0.00 | 0.01 | 0.01 | 68 | 1019.6 |
| 20260508070704 | 52 | 60 | 0.0 | 0.0 | 0.00 | 0.01 | 0.01 | 72 | 1019.7 |
| 20260508070513 | 51 | 62 | 0.0 | 0.0 | 0.00 | 0.01 | 0.01 | 71 | 1018.5 |
| 20260508065204 | 51 | 107 | 0.0 | 0.0 | 0.00 | 0.01 | 0.01 | 73 | 1019.5 |
| 20260508064705 | 51 | 92 | 0.0 | 1.0 | 0.00 | 0.01 | 0.01 | 73 | 1019.4 |
| 20260508064513 | 51 | 83 | 0.0 | 3.0 | 0.00 | 0.01 | 0.01 | 74 | 1018.3 |
| 20260508064204 | 50 | 80 | 1.0 | 3.0 | 0.00 | 0.01 | 0.01 | 73 | 1019.4 |
| 20260508063704 | 51 | 60 | 0.0 | 1.0 | 0.00 | 0.01 | 0.01 | 75 | 1019.3 |
| 20260508063513 | 50 | 83 | 0.0 | 4.0 | 0.00 | 0.01 | 0.01 | 77 | 1018.2 |
| 20260508063204 | 50 | 73 | 0.0 | 1.0 | 0.00 | 0.01 | 0.01 | 76 | 1019.3 |
| 20260508062704 | 50 | 96 | 2.0 | 8.0 | 0.00 | 0.01 | 0.01 | 77 | 1019.2 |
| 20260508062514 | 50 | 61 | 2.0 | 8.0 | 0.00 | 0.01 | 0.01 | 78 | 1018.1 |
| 20260508061704 | 49 | 70 | 1.0 | 6.0 | 0.00 | 0.01 | 0.01 | 83 | 1019.2 |
| 20260508061513 | 49 | 77 | 2.0 | 6.0 | 0.00 | 0.01 | 0.01 | 82 | 1018.0 |
| 20260508061204 | 49 | 87 | 2.0 | 3.0 | 0.00 | 0.01 | 0.01 | 85 | 1019.1 |
| 20260508060704 | 49 | 81 | 0.0 | 1.0 | 0.00 | 0.01 | 0.01 | 87 | 1019.1 |
| 20260508060204 | 49 | 67 | 0.0 | 3.0 | 0.00 | 0.01 | 0.01 | 89 | 1019.1 |
| 20260508055513 | 49 | 56 | 1.0 | 4.0 | 0.00 | 0.01 | 0.01 | 91 | 1018.0 |
| 20260508055204 | 48 | 45 | 0.0 | 0.0 | 0.00 | 0.01 | 0.01 | 92 | 1019.1 |
| 20260508054704 | 47 | 31 | 0.0 | 0.0 | 0.00 | 0.01 | 0.01 | 93 | 1019.1 |
| 20260508054513 | 47 | 31 | 0.0 | 0.0 | 0.00 | 0.01 | 0.01 | 93 | 1018.0 |
| 20260508054204 | 47 | 23 | 0.0 | 0.0 | 0.00 | 0.01 | 0.01 | 94 | 1019.1 |
| 20260508053704 | 46 | 61 | 0.0 | 0.0 | 0.00 | 0.01 | 0.01 | 94 | 1019.1 |
| 20260508053513 | 46 | 59 | 0.0 | 0.0 | 0.00 | 0.01 | 0.01 | 94 | 1017.9 |
| 20260508053204 | 45 | 59 | 0.0 | 0.0 | 0.00 | 0.01 | 0.01 | 94 | 1019.1 |
| 20260508052514 | 45 | 59 | 0.0 | 0.0 | 0.00 | 0.01 | 0.01 | 94 | 1018.0 |
| 20260508052204 | 44 | 59 | 0.0 | 0.0 | 0.00 | 0.01 | 0.01 | 94 | 1019.1 |
| 20260508051704 | 44 | 135 | 0.0 | 0.0 | 0.00 | 0.01 | 0.01 | 95 | 1019.1 |
| 20260508051204 | 43 | 135 | 0.0 | 0.0 | 0.00 | 0.01 | 0.01 | 95 | 1019.0 |
| 20260508050706 | 41 | 135 | 0.0 | 0.0 | 0.00 | 0.01 | 0.01 | 94 | 1019.0 |
| 20260508050513 | 41 | 135 | 0.0 | 0.0 | 0.00 | 0.01 | 0.01 | 94 | 1017.8 |
| 20260508045706 | 40 | 135 | 0.0 | 0.0 | 0.00 | 0.01 | 0.01 | 94 | 1018.9 |
| 20260508045513 | 39 | 135 | 0.0 | 0.0 | 0.00 | 0.01 | 0.01 | 94 | 1017.7 |
| 20260508045205 | 39 | 135 | 0.0 | 0.0 | 0.00 | 0.01 | 0.01 | 94 | 1019.0 |
| 20260508044706 | 38 | 135 | 0.0 | 0.0 | 0.00 | 0.01 | 0.01 | 94 | 1018.9 |
| 20260508044513 | 38 | 135 | 0.0 | 0.0 | 0.00 | 0.01 | 0.01 | 94 | 1017.6 |
| 20260508043705 | 36 | 135 | 0.0 | 0.0 | 0.00 | 0.01 | 0.01 | 93 | 1018.9 |
| 20260508043513 | 36 | 135 | 0.0 | 0.0 | 0.00 | 0.01 | 0.01 | 93 | 1017.5 |
| 20260508043206 | 36 | 135 | 0.0 | 0.0 | 0.00 | 0.01 | 0.01 | 93 | 1018.8 |
| 20260508042706 | 36 | 135 | 0.0 | 0.0 | 0.00 | 0.01 | 0.01 | 93 | 1018.8 |
| 20260508041513 | 35 | 135 | 0.0 | 0.0 | 0.00 | 0.01 | 0.01 | 92 | 1017.5 |
| 20260508041206 | 35 | 135 | 0.0 | 0.0 | 0.00 | 0.01 | 0.01 | 92 | 1018.8 |
| 20260508040706 | 35 | 135 | 0.0 | 0.0 | 0.00 | 0.01 | 0.01 | 92 | 1018.8 |
| 20260508040205 | 35 | 135 | 0.0 | 0.0 | 0.00 | 0.01 | 0.01 | 92 | 1018.7 |
| 20260508035513 | 35 | 135 | 0.0 | 0.0 | 0.00 | 0.01 | 0.01 | 92 | 1017.4 |
| 20260508035205 | 35 | 135 | 0.0 | 0.0 | 0.00 | 0.01 | 0.01 | 92 | 1018.7 |
| 20260508034706 | 36 | 135 | 0.0 | 0.0 | 0.00 | 0.01 | 0.01 | 92 | 1018.8 |
| 20260508034513 | 35 | 135 | 0.0 | 0.0 | 0.00 | 0.01 | 0.01 | 92 | 1017.5 |
| 20260508034205 | 36 | 135 | 0.0 | 0.0 | 0.00 | 0.01 | 0.01 | 92 | 1018.8 |
| 20260508033705 | 35 | 135 | 0.0 | 0.0 | 0.00 | 0.01 | 0.01 | 92 | 1018.8 |
| 20260508033513 | 36 | 135 | 0.0 | 0.0 | 0.00 | 0.01 | 0.01 | 92 | 1017.4 |
| 20260508033205 | 36 | 135 | 0.0 | 0.0 | 0.00 | 0.01 | 0.01 | 92 | 1018.7 |
| 20260508032706 | 36 | 135 | 0.0 | 0.0 | 0.00 | 0.01 | 0.01 | 92 | 1018.7 |
| 20260508032205 | 36 | 135 | 0.0 | 0.0 | 0.00 | 0.01 | 0.01 | 92 | 1018.7 |
| 20260508031705 | 36 | 135 | 0.0 | 0.0 | 0.00 | 0.01 | 0.01 | 92 | 1018.7 |
| 20260508031205 | 36 | 135 | 0.0 | 0.0 | 0.00 | 0.01 | 0.01 | 92 | 1018.7 |
| 20260508030705 | 36 | 135 | 0.0 | 0.0 | 0.00 | 0.01 | 0.01 | 92 | 1018.7 |
| 20260508025706 | 37 | 135 | 0.0 | 0.0 | 0.00 | 0.01 | 0.01 | 92 | 1018.7 |
| 20260508025514 | 37 | 135 | 0.0 | 0.0 | 0.00 | 0.01 | 0.01 | 92 | 1017.3 |
| 20260508025206 | 37 | 135 | 0.0 | 0.0 | 0.00 | 0.01 | 0.01 | 92 | 1018.7 |
| 20260508024705 | 37 | 135 | 0.0 | 0.0 | 0.00 | 0.01 | 0.01 | 92 | 1018.7 |
| 20260508024513 | 37 | 135 | 0.0 | 0.0 | 0.00 | 0.01 | 0.01 | 92 | 1017.4 |
| 20260508024205 | 37 | 135 | 0.0 | 0.0 | 0.00 | 0.01 | 0.01 | 92 | 1018.8 |
| 20260508023705 | 37 | 135 | 0.0 | 0.0 | 0.00 | 0.01 | 0.01 | 92 | 1018.8 |
| 20260508023205 | 37 | 135 | 0.0 | 0.0 | 0.00 | 0.01 | 0.01 | 92 | 1018.8 |
| 20260508022705 | 37 | 135 | 0.0 | 0.0 | 0.00 | 0.01 | 0.01 | 92 | 1018.8 |
| 20260508022205 | 37 | 135 | 0.0 | 0.0 | 0.00 | 0.01 | 0.01 | 92 | 1018.8 |
| 20260508021705 | 37 | 135 | 0.0 | 0.0 | 0.00 | 0.01 | 0.01 | 92 | 1018.8 |
| 20260508021512 | 37 | 135 | 0.0 | 0.0 | 0.00 | 0.01 | 0.01 | 92 | 1017.5 |
| 20260508021206 | 37 | 135 | 0.0 | 0.0 | 0.00 | 0.01 | 0.01 | 92 | 1018.8 |
| 20260508020706 | 37 | 135 | 0.0 | 0.0 | 0.00 | 0.01 | 0.01 | 92 | 1018.8 |
| 20260508020512 | 37 | 135 | 0.0 | 0.0 | 0.00 | 0.01 | 0.01 | 92 | 1017.5 |
| 20260508015705 | 37 | 135 | 0.0 | 0.0 | 0.00 | 0.01 | 0.01 | 92 | 1018.8 |
| 20260508015513 | 37 | 135 | 0.0 | 0.0 | 0.00 | 0.01 | 0.01 | 92 | 1017.4 |
| 20260508015205 | 37 | 135 | 0.0 | 0.0 | 0.00 | 0.01 | 0.01 | 92 | 1018.8 |
| 20260508014706 | 37 | 135 | 0.0 | 0.0 | 0.00 | 0.01 | 0.01 | 92 | 1018.8 |
| 20260508014206 | 38 | 135 | 0.0 | 0.0 | 0.01 | 0.01 | 0.01 | 92 | 1018.8 |
| 20260508013705 | 38 | 135 | 0.0 | 0.0 | 0.01 | 0.01 | 0.01 | 91 | 1018.8 |
| 20260508013512 | 38 | 135 | 0.0 | 0.0 | 0.01 | 0.01 | 0.01 | 91 | 1017.5 |
| 20260508013205 | 38 | 135 | 0.0 | 0.0 | 0.01 | 0.01 | 0.01 | 92 | 1018.7 |
| 20260508012705 | 38 | 135 | 0.0 | 0.0 | 0.01 | 0.01 | 0.01 | 92 | 1018.7 |
| 20260508012513 | 38 | 135 | 0.0 | 0.0 | 0.01 | 0.01 | 0.01 | 92 | 1017.5 |
| 20260508012206 | 38 | 135 | 0.0 | 0.0 | 0.01 | 0.01 | 0.01 | 92 | 1018.7 |
| 20260508011706 | 38 | 135 | 0.0 | 0.0 | 0.01 | 0.01 | 0.01 | 91 | 1018.8 |
| 20260508011512 | 38 | 135 | 0.0 | 0.0 | 0.01 | 0.01 | 0.01 | 92 | 1017.5 |
| 20260508011205 | 39 | 135 | 0.0 | 0.0 | 0.01 | 0.01 | 0.01 | 91 | 1018.7 |
| 20260508010513 | 39 | 135 | 0.0 | 0.0 | 0.01 | 0.01 | 0.01 | 92 | 1017.4 |
| 20260508010205 | 39 | 135 | 0.0 | 0.0 | 0.01 | 0.01 | 0.01 | 92 | 1018.6 |
| 20260508005705 | 39 | 135 | 0.0 | 0.0 | 0.01 | 0.01 | 0.01 | 91 | 1018.7 |
| 20260508005513 | 39 | 135 | 0.0 | 0.0 | 0.01 | 0.01 | 0.01 | 91 | 1017.4 |
| 20260508005205 | 39 | 135 | 0.0 | 0.0 | 0.01 | 0.01 | 0.01 | 92 | 1018.7 |
| 20260508004513 | 39 | 135 | 0.0 | 0.0 | 0.01 | 0.01 | 0.01 | 92 | 1017.3 |
| 20260508003705 | 39 | 135 | 0.0 | 0.0 | 0.00 | 0.00 | 0.00 | 92 | 1018.6 |
| 20260508003513 | 39 | 135 | 0.0 | 0.0 | 0.00 | 0.00 | 0.00 | 92 | 1017.3 |
| 20260508003206 | 39 | 135 | 0.0 | 0.0 | 0.00 | 0.00 | 0.00 | 91 | 1018.5 |
| 20260508002705 | 39 | 135 | 0.0 | 0.0 | 0.00 | 0.00 | 0.00 | 91 | 1018.5 |
| 20260508002513 | 39 | 135 | 0.0 | 0.0 | 0.00 | 0.00 | 0.00 | 91 | 1017.3 |
| 20260508002205 | 39 | 135 | 0.0 | 0.0 | 0.00 | 0.00 | 0.00 | 91 | 1018.5 |
| 20260508001205 | 40 | 135 | 0.0 | 0.0 | 0.00 | 0.00 | 0.00 | 91 | 1018.5 |
| 20260508000512 | 40 | 135 | 0.0 | 0.0 | 0.00 | 0.00 | 0.00 | 91 | 1017.2 |
| 20260508000206 | 40 | 135 | 0.0 | 0.0 | 0.00 | 0.00 | 0.00 | 91 | 1018.6 |
| 20260507235512 | 40 | 135 | 0.0 | 0.0 | 0.00 | 0.00 | 0.00 | 91 | 1017.3 |
| 20260507234512 | 40 | 135 | 0.0 | 0.0 | 0.00 | 0.00 | 0.00 | 91 | 1017.4 |
| 20260507234205 | 40 | 135 | 0.0 | 0.0 | 0.00 | 0.00 | 0.00 | 90 | 1018.6 |
| 20260507233706 | 40 | 135 | 0.0 | 0.0 | 0.00 | 0.00 | 0.00 | 90 | 1018.6 |
| 20260507233512 | 40 | 135 | 0.0 | 0.0 | 0.00 | 0.00 | 0.00 | 90 | 1017.4 |
| 20260507233205 | 40 | 135 | 0.0 | 0.0 | 0.00 | 0.00 | 0.00 | 90 | 1018.6 |
| 20260507232706 | 40 | 135 | 0.0 | 0.0 | 0.00 | 0.00 | 0.00 | 90 | 1018.5 |
| 20260507232206 | 40 | 135 | 0.0 | 0.0 | 0.00 | 0.00 | 0.00 | 90 | 1018.5 |
| 20260507231705 | 40 | 135 | 0.0 | 0.0 | 0.00 | 0.00 | 0.00 | 90 | 1018.6 |
| 20260507231512 | 40 | 135 | 0.0 | 0.0 | 0.00 | 0.00 | 0.00 | 91 | 1017.3 |
| 20260507230706 | 40 | 135 | 0.0 | 0.0 | 0.00 | 0.00 | 0.00 | 90 | 1018.6 |
| 20260507230512 | 40 | 135 | 0.0 | 0.0 | 0.00 | 0.00 | 0.00 | 90 | 1017.3 |
| 20260507225705 | 41 | 135 | 0.0 | 0.0 | 0.00 | 0.00 | 0.00 | 90 | 1018.6 |
| 20260507225205 | 41 | 135 | 0.0 | 0.0 | 0.00 | 0.00 | 0.00 | 90 | 1018.6 |
| 20260507224705 | 41 | 135 | 0.0 | 0.0 | 0.00 | 0.00 | 0.00 | 90 | 1018.6 |
| 20260507224205 | 41 | 135 | 0.0 | 0.0 | 0.00 | 0.00 | 0.00 | 90 | 1018.5 |
| 20260507223513 | 41 | 135 | 0.0 | 0.0 | 0.00 | 0.00 | 0.00 | 90 | 1017.3 |
| 20260507223206 | 41 | 135 | 0.0 | 0.0 | 0.00 | 0.00 | 0.00 | 90 | 1018.5 |
| 20260507222705 | 42 | 135 | 0.0 | 0.0 | 0.00 | 0.00 | 0.00 | 90 | 1018.5 |
| 20260507222512 | 42 | 135 | 0.0 | 0.0 | 0.00 | 0.00 | 0.00 | 89 | 1017.3 |
| 20260507222205 | 42 | 135 | 0.0 | 0.0 | 0.00 | 0.00 | 0.00 | 89 | 1018.4 |
| 20260507221513 | 42 | 135 | 0.0 | 0.0 | 0.00 | 0.00 | 0.00 | 89 | 1017.3 |
| 20260507221205 | 42 | 135 | 0.0 | 0.0 | 0.00 | 0.00 | 0.00 | 89 | 1018.4 |
| 20260507220706 | 42 | 135 | 0.0 | 0.0 | 0.00 | 0.00 | 0.00 | 89 | 1018.4 |
| 20260507220205 | 43 | 135 | 0.0 | 0.0 | 0.00 | 0.00 | 0.00 | 89 | 1018.3 |
| 20260507215705 | 43 | 135 | 0.0 | 0.0 | 0.00 | 0.00 | 0.00 | 89 | 1018.2 |
| 20260507215512 | 43 | 135 | 0.0 | 0.0 | 0.00 | 0.00 | 0.00 | 89 | 1017.0 |
| 20260507215205 | 43 | 135 | 0.0 | 0.0 | 0.00 | 0.00 | 0.00 | 90 | 1018.2 |
| 20260507214705 | 43 | 135 | 0.0 | 0.0 | 0.00 | 0.00 | 0.00 | 89 | 1018.1 |
| 20260507214512 | 43 | 135 | 0.0 | 0.0 | 0.00 | 0.00 | 0.00 | 89 | 1017.0 |
| 20260507213705 | 43 | 135 | 0.0 | 0.0 | 0.00 | 0.00 | 0.00 | 89 | 1018.2 |
| 20260507213512 | 43 | 135 | 0.0 | 0.0 | 0.00 | 0.00 | 0.00 | 89 | 1017.0 |
| 20260507213205 | 43 | 135 | 0.0 | 0.0 | 0.00 | 0.00 | 0.00 | 88 | 1018.2 |
| 20260507212705 | 44 | 135 | 0.0 | 0.0 | 0.00 | 0.00 | 0.00 | 89 | 1018.2 |
| 20260507212512 | 44 | 135 | 0.0 | 0.0 | 0.00 | 0.00 | 0.00 | 89 | 1017.0 |
| 20260507212205 | 44 | 135 | 0.0 | 0.0 | 0.00 | 0.00 | 0.00 | 89 | 1018.2 |
| 20260507211705 | 44 | 135 | 0.0 | 0.0 | 0.00 | 0.00 | 0.00 | 89 | 1018.3 |
| 20260507211205 | 44 | 135 | 0.0 | 0.0 | 0.00 | 0.00 | 0.00 | 88 | 1018.3 |
| 20260507210705 | 44 | 135 | 0.0 | 0.0 | 0.00 | 0.00 | 0.00 | 88 | 1018.3 |
| 20260507205705 | 45 | 135 | 0.0 | 0.0 | 0.00 | 0.00 | 0.00 | 88 | 1018.2 |